COSMOS 2251 DEB, 34967

Orbit data source: Space-Track

COSMOS 2251 DEB, 34967 is space debris in LEO originally from a launch on Wed, 16 Jun 1993 UTC launched from the Plesetsk Missile And Space Complex (PKMTR). The debris from Iridium 33, an American commercial communications satellite, has been tracked extensively since its accidental collision with the defunct Russian satellite Cosmos 2251 in 2009. This event, occurring at high speed in low Earth orbit (LEO), generated thousands of pieces of space debris, significantly increasing the risk of further collisions. The Iridium 33 debris cloud has impacted space traffic management and orbital debris mitigation strategies, making it a subject of ongoing study in space situational awareness.

Loading next visibility...
Identifier
34967, 1993-036AEW
Orbit
LEO
Country
Flag of CISCIS
Related business
Manufacturer
Unknown
Mission
Spacecraft
Bus & Motor
Unknown
Mass
Unknown
Launch date (UTC)
1993-06-16 (33 years ago)
Launch vehicle
Unknown
Launch site
Plesetsk Missile And Space Complex (PKMTR)
Object type
Payload
Rocket body
Debris
Shape & HBR
Unknown shape, 0.1 m
Radar Cross Section
Small (<0.1 m²)

Expand to show TLE details & history
Last TLE update: 2 days ago

TLE from 2 days ago
0 COSMOS 2251 DEB
1 34967U 93036AEW 26173.48341854  .00000921  00000-0  26883-3 0  9998
2 34967  73.9921 255.9003 0040146 357.0244   3.0668 14.45064781677267
Epoch: 2026-06-22T11:36Z
TLE epoch observation values (Epoch: 2026-06-22T11:36:07.361Z)
Latitude
-0.00003°
Longitude
171.20093°
Altitude
715.886 km
Speed
7.513 km/s
True Right ascension
17h 03m 36s
True Declination
0° 00' 00"
Sunlit
Object was in full shadow at epoch
Visualization orbit readout
Latitude
Unknown
Longitude
Unknown
Altitude
Unknown
Speed
Unknown
Apparent Right ascension
Unknown
Apparent Declination
Unknown
Sunlit
N/A
Visualization observer readout
Local Sidereal Time
04:44:57
Azimuth
Unknown
Elevation
Unknown
Doppler factor
Unknown
Orbital elements
Apogee altitude
768.005 km
Perigee altitude
710.857 km
Semi-major axis
7,117.568 km
Eccentricity
0.00401
Inclination
73.9921°
RAAN
255.9003°
Arg. of periapsis
357.0244°
True anomaly
3.09154°
Mean anomaly
3.0668°
Eccentric anomaly
3.07916°
Mean motion
3.61448 °/min
Orbital period
99.6 mins
BSTAR
0.00026883

Documentation

Showing up to 5 results
|